User: anonymous   Login
Location: Unspecified
(0.0000°N, 0.0000°E)
Time: 01:32:19
(UTC+01:00)
Language:

YAOGAN 1 - Orbit

View from above orbital plane
View from above orbital plane
View from above satellite
View from above satellite

Ground track
Ground track

The orbit data is extracted from the following two-line orbital elements,

1 29092U 06015A   15057.54921177  .00000620  00000-0  84494-4 0  9999
2 29092 097.9935 057.4410 0001521 102.5116 008.8386 14.82235204477666
Epoch (UTC): 26 February 2015 13:10:51
Eccentricity: 0.0001521
inclination: 97.9935°
perigee height: 621 km
apogee height: 623 km
right ascension of ascending node: 57.4410°
argument of perigee: 102.5116°
revolutions per day: 14.82235204
mean anomaly at epoch: 8.8386°
orbit number at epoch: 47766

The dashed part of the orbit path shows where the satellite is in the earth's shadow,  

DLR